sat.trackr.live / text

‹ back to catalog

STARLINK-11597 [DTC]

NORAD 63115 · 2025-039M

PAYLOAD ACTIVE UNKNOWN

§ Identity

Operator
Country
US
Launch date
2025-02-27
Launch site
AFETR
Launch vehicle
Mass (kg)
RCS (m²)

Purposes: comms

External: N2YO · Heavens-Above · Gunter

§ Orbital elements

Epoch: 2026-09-20T17:30:21.382560Z

Period
91.67 min
Inclination
43.0027°
Eccentricity
0.0002516
Mean motion
15.70842124 rev/d
Perigee alt
354.8 km
Apogee alt
358.2 km
Semi-major
6,734.6 km
B*
1.0802e-3
RAAN
140.8939°
Arg perigee
314.4196°
Mean anomaly
45.6466°
Rev number
9,029

§ Raw data

STARLINK-11597 [DTC]1 63115U 25039M   26263.72941415  .00140540  00000+0  10802-2 0  99932 63115  43.0027 140.8939 0002516 314.4196  45.6466 15.70842124 90295

JSON: /api/v1/satellites/63115 · /tle

For live sub-satellite position, see the globe view (requires WebGL).

§ Visibility from observer

Set your observer location to see the next 7 days of passes ≥ 10°. The values pass through the URL so the page stays shareable.

No JS? Fill the form by hand. The geolocation button needs JavaScript.